DW9672 Weather Reports


Display with metric or nautical units.
time (UTC)temp
F
wind
direction
speed
MPH
gust
MPH
rain 1hr
in
rain 24hr
in
rain mn
in
humidity
%
barometer
mb
20260903161535 88 312 0.0 5.0 0.00 0.02 0.01 73 1014.4
20260903160033 87 223 0.0 8.0 0.00 0.02 0.01 74 1014.4
20260903154518 86 227 0.0 5.0 0.00 0.02 0.01 77 1014.4
20260903153016 85 324 1.0 6.0 0.01 0.02 0.01 76 1014.5
20260903151514 85 5 2.0 5.0 0.01 0.02 0.01 77 1014.6
20260903150011 85 197 2.0 6.0 0.01 0.02 0.01 76 1014.4
20260903144509 84 185 0.0 3.0 0.01 0.02 0.01 77 1014.4
20260903143006 83 221 0.0 0.0 0.00 0.01 0.00 80 1014.4
20260903141510 83 231 0.0 0.0 0.00 0.01 0.00 79 1014.4
20260903140007 82 218 0.0 0.0 0.00 0.01 0.00 82 1014.3
20260903134545 81 244 0.0 0.0 0.00 0.01 0.00 83 1014.3
20260903133043 81 164 0.0 0.0 0.00 0.01 0.00 84 1014.4
20260903131520 80 231 0.0 0.0 0.00 0.01 0.00 84 1014.5
20260903130016 78 183 0.0 0.0 0.00 0.01 0.00 88 1014.6
20260903124606 76 192 0.0 0.0 0.00 0.01 0.00 92 1014.7
20260903123054 74 184 0.0 0.0 0.00 0.01 0.00 95 1014.6
20260903121540 73 184 0.0 0.0 0.00 0.01 0.00 97 1014.7
20260903120037 73 184 0.0 0.0 0.00 0.01 0.00 97 1014.7
20260903114518 72 184 0.0 0.0 0.00 0.01 0.00 97 1014.6
20260903113017 72 184 0.0 0.0 0.00 0.01 0.00 97 1014.5
20260903111603 73 184 0.0 0.0 0.00 0.01 0.00 97 1014.3
20260903110057 73 184 0.0 0.0 0.00 0.01 0.00 96 1014.4
20260903104539 73 184 0.0 0.0 0.00 0.01 0.00 96 1014.4
20260903103039 73 184 0.0 0.0 0.00 0.01 0.00 96 1014.5
20260903101520 73 184 0.0 0.0 0.00 0.01 0.00 96 1014.4
20260903100020 73 184 0.0 0.0 0.00 0.01 0.00 95 1014.4
20260903094505 74 184 0.0 0.0 0.00 0.01 0.00 95 1014.4
20260903093059 74 184 0.0 0.0 0.00 0.01 0.00 95 1014.3
20260903091542 74 184 0.0 0.0 0.00 0.01 0.00 95 1014.3
20260903090054 74 184 0.0 0.0 0.00 0.01 0.00 94 1014.3
20260903084524 74 184 0.0 0.0 0.00 0.01 0.00 95 1014.1
20260903083024 74 184 0.0 0.0 0.00 0.01 0.00 95 1014.2
20260903081512 74 184 0.0 0.0 0.00 0.01 0.00 96 1014.2
20260903080011 74 184 0.0 0.0 0.00 0.01 0.00 97 1014.2
20260903074510 74 184 0.0 0.0 0.00 0.01 0.00 97 1014.2
20260903073014 74 184 0.0 0.0 0.00 0.01 0.00 97 1014.1
20260903071508 75 184 0.0 0.0 0.00 0.01 0.00 97 1014.1
20260903070008 75 184 0.0 0.0 0.00 0.01 0.00 97 1014.1
20260903064506 75 183 0.0 0.0 0.00 0.01 0.00 97 1014.1
20260903063006 75 183 0.0 0.0 0.00 0.01 0.00 97 1014.2
20260903061547 75 183 0.0 0.0 0.00 0.01 0.00 97 1014.2
20260903060111 75 183 0.0 0.0 0.00 0.01 0.00 97 1014.1
20260903054534 75 183 0.0 0.0 0.00 0.01 0.00 97 1014.1
20260903053028 76 183 0.0 0.0 0.00 0.01 0.00 97 1014.1
20260903051510 76 183 0.0 0.0 0.00 0.01 0.00 96 1014.1
20260903050008 76 183 0.0 0.0 0.00 0.01 0.00 96 1014.0
20260903044549 76 183 0.0 0.0 0.00 0.01 0.00 96 1013.9
20260903043049 76 183 0.0 0.0 0.00 0.01 0.00 96 1013.9
20260903041537 76 183 0.0 0.0 0.00 0.01 0.00 96 1013.9
20260903040051 77 183 0.0 0.0 0.00 0.01 0.00 95 1013.8
20260903034534 77 183 0.0 0.0 0.00 0.01 0.01 95 1013.8
20260903033035 77 183 0.0 0.0 0.00 0.01 0.01 95 1013.8
20260903031534 78 183 0.0 0.0 0.00 0.01 0.01 95 1013.7
20260903030033 78 183 0.0 0.0 0.00 0.01 0.01 95 1013.7
20260903024532 78 183 0.0 0.0 0.00 0.01 0.01 94 1013.7
20260903023048 79 183 0.0 0.0 0.00 0.01 0.01 94 1013.6
20260903021519 79 183 0.0 0.0 0.00 0.01 0.01 93 1013.6
20260903020015 79 183 0.0 0.0 0.00 0.01 0.01 93 1013.5
20260903014614 80 183 0.0 0.0 0.00 0.01 0.01 92 1013.5
20260903013100 81 183 0.0 0.0 0.00 0.01 0.01 91 1013.4
20260903011556 81 183 0.0 0.0 0.00 0.01 0.01 90 1013.2
20260903010045 82 183 0.0 0.0 0.00 0.01 0.01 90 1013.1
20260903004541 83 183 0.0 0.0 0.00 0.01 0.01 88 1013.0
20260903003020 84 183 0.0 0.0 0.00 0.01 0.01 87 1013.0
20260903001529 86 183 0.0 0.0 0.00 0.01 0.01 85 1013.1
20260903000002 87 183 0.0 0.0 0.00 0.01 0.01 83 1013.2
20260902234501 89 183 0.0 0.0 0.01 0.01 0.01 78 1013.2
20260902233043 91 183 0.0 0.0 0.01 0.01 0.01 76 1013.3
20260902231545 92 183 0.0 0.0 0.01 0.01 0.01 72 1013.4
20260902230024 93 182 0.0 1.0 0.01 0.01 0.01 70 1013.4
20260902224523 93 182 0.0 0.0 0.01 0.01 0.01 69 1013.4
20260902223011 94 246 0.0 1.0 0.00 0.00 0.00 66 1013.5
20260902221505 94 222 0.0 1.0 0.00 0.00 0.00 66 1013.4
20260902220049 94 180 0.0 3.0 0.00 0.00 0.00 66 1013.5
20260902214547 94 202 0.0 3.0 0.00 0.00 0.00 65 1013.6
20260902213027 94 186 1.0 6.0 0.00 0.00 0.00 64 1013.6
20260902211535 95 225 1.0 5.0 0.00 0.00 0.00 63 1013.7
20260902210006 94 276 0.0 5.0 0.00 0.00 0.00 61 1013.8
20260902204506 94 167 0.0 7.0 0.00 0.00 0.00 61 1013.9
20260902203054 94 203 0.0 6.0 0.00 0.00 0.00 63 1013.9
20260902201553 94 246 0.0 6.0 0.00 0.00 0.00 63 1013.9
20260902200052 94 202 1.0 5.0 0.00 0.00 0.00 63 1014.1
20260902194549 94 164 1.0 5.0 0.00 0.00 0.00 62 1014.2
20260902193048 93 196 0.0 7.0 0.00 0.00 0.00 65 1014.3
20260902191549 93 189 1.0 6.0 0.00 0.00 0.00 64 1014.4
20260902190043 93 161 1.0 8.0 0.00 0.00 0.00 65 1014.6
20260902184540 92 226 0.0 7.0 0.00 0.00 0.00 64 1014.7
20260902183023 91 217 1.0 5.0 0.00 0.00 0.00 66 1014.7
20260902181518 91 224 2.0 6.0 0.00 0.00 0.00 67 1014.8
20260902180104 90 219 1.0 6.0 0.00 0.00 0.00 66 1014.9
20260902174603 90 165 1.0 6.0 0.00 0.00 0.00 69 1015.0
20260902173039 89 260 0.0 5.0 0.00 0.00 0.00 69 1015.0
20260902171545 88 258 0.0 5.0 0.00 0.00 0.00 70 1015.1
20260902170023 88 229 2.0 6.0 0.00 0.00 0.00 70 1015.3
20260902164521 88 254 3.0 6.0 0.00 0.00 0.00 71 1015.5
20260902163018 87 223 0.0 7.0 0.00 0.00 0.00 73 1015.5